Hourly Data Report for August 24, 2000

SHERBROOKE A
QUEBEC

45°26'00.000" N
71°41'00.000" W
241.40 m
7028124
71610
YSC

Download Data

Hourly Data (August 2000)
Hourly Data Report for August 24, 2000
TIME
LST
Temp Definition
°C
Dew Point Definition
°C
Rel Hum Definition
%
Precip. Amount Definition
mm

Wind Dir Definition
10's deg

Wind Spd Definition
km/h
Visibility Definition
km
Stn Press Definition
kPa
Hmdx Definition


Wind Chill Definition


Weather Definition


00:00 15.3 14.7 96   28 15 15.0 98.42      
01:00 15.0 14.3 96   27 11 12.9 98.42      
02:00 14.7 14.2 97   24 9 9.7 98.42      
03:00 14.6 14.0 96   24 7 9.7 98.45      
04:00 14.6 13.9 96   24 9 8.0 98.45      
05:00 14.5 13.9 96   22 6 8.0 98.52      
06:00 14.7 14.1 96   22 7 8.0 98.52      
07:00 14.7 14.2 97   26 7 6.4 98.59     Rain Showers, Fog
08:00 15.6 14.8 95   25 9 8.0 98.59     Fog
09:00 16.7 14.8 89   28 11 12.9 98.62     Mostly Cloudy
10:00 17.8 14.7 82   23 15 24.1 98.62     Mostly Cloudy
11:00 19.8 14.6 72   25 17 24.1 98.62     Mainly Clear
12:00 21.8 15.1 66   27 15 24.1 98.59 26   Mainly Clear
13:00 21.3 13.0 59   26 22 24.1 98.59     Mainly Clear
14:00 22.4 12.0 52   25 22 24.1 98.55 25   Mainly Clear
15:00 20.2 13.0 63   28 13 24.1 98.55     Mainly Clear
16:00 21.2 13.4 61   24 19 24.1 98.55     Mainly Clear
17:00 19.6 12.8 65   27 19 15.0 98.55      
18:00 16.0 14.6 91   26 6 15.0 98.62      
19:00 13.5 13.2 98   19 6 2.3 98.65      
20:00 12.8 12.8 100     0 0.5 98.69      
21:00 12.0 11.9 99   24 6 8.0 98.72      
22:00 13.9 13.7 99     0 15.0 98.72      
23:00 14.3 13.8 97   20 9 15.0 98.72      

Notes on Data Quality.

Legend

  • E = Estimated
  • M = Missing
  • NA = Not Available*
  • [empty] = Indicates an unobserved value
Date modified: